Regional Weather Roundup
Issued by NWS Jackson, KY

Home | Current Version | Previous Version | Text Only | Print | Product List | Glossary On
Versions: 1 2 3 4 5 6 7 8 9 10 11 12 13 14 15 16 17 18 19 20 21 22 23 24 25 26 27 28 29 30 31 32 33 34 35 36 37 38 39 40 41 42 43 44 45 46 47 48 49 50
000
ASUS43 KJKL 201819
RWRJKL

EAST KENTUCKY HOURLY WEATHER ROUNDUP
NATIONAL WEATHER SERVICE JACKSON KY
200 PM EDT SAT SEP 20 2014

NOTE: "FAIR" INDICATES FEW OR NO CLOUDS BELOW 12,000 FEET WITH
NO SIGNIFICANT WEATHER AND/OR OBSTRUCTIONS TO VISIBILITY.

* THESE REPORTS ARE NOT UNDER NWS QUALITY CONTROL AND MAY NOT
  REPORT WEATHER SUCH AS PRECIPITATION AND FOG.

KYZ079-080-083-085-087-088-110-112-115-119-120-201900
...EASTERN KENTUCKY...

CITY           SKY/WX    TMP DP  RH WIND       PRES   REMARKS
JACKSON        MOSUNNY   79  62  56 VRB5      30.13F
6HR MIN TEMP:  62; 6HR MAX TEMP:  79;

LONDON         SUNNY     80  60  50 S9        30.13F
6HR MIN TEMP:  60; 6HR MAX TEMP:  80;

SOMERSET*      MOSUNNY   79  61  53 SW3       30.12F
MONTICELLO*    MOSUNNY   83  62  48 S7        30.12F
6HR MIN TEMP:  65; 6HR MAX TEMP:  84;

WILLIAMSBURG*  MOSUNNY   77  63  61 S3        30.13F
MIDDLESBORO*   SUNNY     80  60  51 S8        30.14F
6HR MIN TEMP:  60; 6HR MAX TEMP:  80;

HARLAN APT*    CLEAR     79  57  47 MISG      30.15F
HAZARD APT*    CLEAR     81  59  47 SW8       30.12F
BLACK MTN*       N/A    N/A N/A N/A W1          N/A
PIKEVILLE APT* MOSUNNY   77  61  57 S3        30.14F
BIG SANDY*     PTCLDY    80  63  55 SW6       30.13F
6HR MIN TEMP:  64; 6HR MAX TEMP:  80;

MOREHEAD APT*  CLOUDY    79  63  57 SW13      30.11F
$$

KYZ035-036-041-042-044-050-067-078-099-201900
...CENTRAL KENTUCKY...

CITY           SKY/WX    TMP DP  RH WIND       PRES   REMARKS
MT STERLING*   PTSUNNY   79  63  57 W12       30.11F
FLEMING/MASON* MOSUNNY   79  64  61 W15G23    30.09F
DANVILLE*      MOSUNNY   81  63  54 SW8       30.10F
RICHMOND*      PTSUNNY   82  63  51 SW8       30.09F
LEXINGTON      MOSUNNY   81  63  54 SW12      30.09F
6HR MIN TEMP:  66; 6HR MAX TEMP:  81;

FRANKFORT      MOSUNNY   80  64  58 SW13      30.07F
6HR MIN TEMP:  60; 6HR MAX TEMP:  80;

$$

KYZ091>093-OHZ055-061-077-WVZ005-015-034-035-042-201900
...SOUTHERN OHIO/WEST VIRGINIA...

CITY           SKY/WX    TMP DP  RH WIND       PRES   REMARKS
COVINGTON      PTSUNNY   78  66  66 SW10      30.05F
COLUMBUS       CLOUDY    82  62  50 SW13      30.02F
DAYTON         CLOUDY    79  61  53 SW16G28   30.02F
WILMINGTON     PTSUNNY   78  64  61 SW16      30.04F
HUNTINGTON     SUNNY     79  63  57 SW9       30.09F
CHARLESTON     PTSUNNY   81  61  50 SW8       30.11F
PINEVILLE*     SUNNY     81  63  54 MISG      30.20F
BECKLEY        PTSUNNY   75  57  53 W7        30.19F
BLUEFIELD      SUNNY     74  54  49 CALM      30.22F
$$

VAZ002-007-008-TNZ017-027-036-066-071-201900
...SOUTHWEST VIRGINIA/EAST TENNESSEE...

CITY           SKY/WX    TMP DP  RH WIND       PRES   REMARKS
WISE*          MOSUNNY   77  54  44 S3        30.21F
JONESVILLE*    CLEAR     79  59  50 CALM      30.17F
ABINGDON*      SUNNY     78  55  44 CALM      30.18F
BRISTOL        SUNNY     80  51  36 S6        30.16F
KNOXVILLE      MOSUNNY   81  59  47 VRB3      30.11F
OAK RIDGE      SUNNY     81  59  47 VRB5      30.14F
CROSSVILLE     SUNNY     77  58  51 SW3       30.16F
NASHVILLE      MOSUNNY   85  63  47 S9        30.09F
$$

...KEY TO REMARKS...
VSB - VISIBILITY IN MILES
WCI - WIND CHILL INDEX
HX  - HEAT INDEX

$$


USA.gov is the U.S. government's official web portal to all federal, state and local government web resources and services.